CW4167 Weather Reports


Display with metric or nautical units.
time (UTC)temp
F
wind
direction
speed
MPH
gust
MPH
rain 1hr
in
rain 24hr
in
rain mn
in
humidity
%
barometer
mb
20260504120206 59 261 11.0 16.0 0.00 0.29 0.10 54 1009.0
20260504100206 57 282 9.0 18.0 0.00 0.33 0.10 65 1008.3
20260504080706 50 299 12.0 17.0 0.00 0.33 0.10 89 1007.6
20260504060205 52 286 12.0 17.0 0.00 0.33 0.10 91 1005.5
20260504050707 54 286 12.0 16.0 0.01 0.33 0.10 91 1004.6
20260504045705 54 277 9.0 16.0 0.00 0.32 0.09 91 1004.4
20260504045207 54 288 5.0 10.0 0.00 0.32 0.09 91 1004.4
20260504044706 54 261 6.0 14.0 0.00 0.32 0.09 91 1004.4
20260504042707 54 258 5.0 16.0 0.00 0.32 0.09 91 1004.2
20260504042206 54 246 9.0 15.0 0.00 0.32 0.09 91 1004.1
20260504041207 54 246 6.0 15.0 0.00 0.32 0.09 91 1004.1
20260504040706 54 244 7.0 15.0 0.00 0.32 0.09 91 1004.1
20260504040205 54 286 6.0 14.0 0.00 0.32 0.09 91 1004.1
20260504035706 54 247 6.0 13.0 0.00 0.32 0.09 91 1004.1
20260504035205 54 208 7.0 13.0 0.00 0.32 0.09 91 1004.1
20260504034206 54 231 6.0 14.0 0.00 0.32 0.09 91 1004.2
20260504033705 54 229 5.0 7.0 0.00 0.32 0.09 91 1004.2
20260504033205 54 259 5.0 8.0 0.00 0.32 0.09 91 1004.2
20260504032706 54 231 4.0 8.0 0.00 0.32 0.09 91 1004.2
20260504030705 54 267 4.0 10.0 0.00 0.32 0.09 91 1004.2
20260504025205 55 257 7.0 15.0 0.00 0.32 0.09 91 1004.3
20260504024705 55 239 7.0 13.0 0.00 0.32 0.09 91 1004.3
20260504024205 55 247 8.0 15.0 0.00 0.32 0.09 91 1004.3
20260504023707 55 268 9.0 15.0 0.00 0.32 0.09 91 1004.4
20260504023205 55 290 6.0 8.0 0.00 0.32 0.09 91 1004.4
20260504022705 55 258 10.0 16.0 0.00 0.32 0.09 91 1004.4
20260504022207 55 247 6.0 14.0 0.00 0.32 0.09 91 1004.3
20260504021707 55 251 8.0 17.0 0.00 0.32 0.09 91 1004.3
20260504020207 55 261 7.0 14.0 0.00 0.32 0.09 91 1004.4
20260504015705 55 261 7.0 16.0 0.00 0.32 0.09 91 1004.3
20260504013205 55 224 6.0 7.0 0.00 0.32 0.09 91 1004.1
20260504012706 55 203 5.0 8.0 0.00 0.32 0.09 91 1004.1
20260504011705 55 217 3.0 6.0 0.00 0.32 0.09 91 1004.1
20260504010707 55 191 3.0 6.0 0.00 0.32 0.09 91 1004.2
20260504010205 55 198 3.0 6.0 0.00 0.32 0.09 91 1004.2
20260504005207 55 198 1.0 6.0 0.00 0.32 0.09 91 1004.2
20260504004707 55 198 3.0 5.0 0.00 0.32 0.09 91 1004.2
20260504004205 55 184 0.0 0.0 0.00 0.32 0.09 91 1004.2
20260504003205 55 183 0.0 1.0 0.01 0.32 0.09 91 1004.2
20260504002705 55 183 0.0 2.0 0.01 0.32 0.09 91 1004.2
20260504002205 55 183 2.0 3.0 0.01 0.32 0.09 90 1004.1
20260504001706 55 173 3.0 6.0 0.01 0.32 0.09 90 1004.1
20260504000705 55 170 3.0 5.0 0.01 0.32 0.09 90 1004.0
20260504000208 55 151 4.0 6.0 0.01 0.32 0.09 90 1004.0
20260503235206 55 155 5.0 6.0 0.02 0.32 0.09 90 1004.2
20260503234705 55 172 3.0 5.0 0.03 0.32 0.09 90 1004.2
20260503234206 55 140 3.0 5.0 0.04 0.32 0.09 90 1004.3
20260503233705 55 140 3.0 5.0 0.03 0.31 0.07 90 1004.3
20260503233206 55 140 2.0 5.0 0.03 0.31 0.07 90 1004.3
20260503225705 55 118 5.0 6.0 0.07 0.30 0.06 90 1004.8
20260503225205 55 119 5.0 6.0 0.09 0.30 0.06 90 1004.8
20260503224707 55 117 5.0 7.0 0.07 0.29 0.05 90 1004.9
20260503222206 55 110 6.0 7.0 0.06 0.27 0.03 90 1005.0
20260503221705 54 120 4.0 5.0 0.07 0.27 0.03 90 1005.4
20260503221206 54 146 3.0 5.0 0.09 0.27 0.03 90 1005.4
20260503220205 54 124 3.0 5.0 0.07 0.24 0.01 89 1005.6
20260503212205 54 92 1.0 2.0 0.10 0.20 0.20 88 1005.9
20260503211706 54 91 1.0 1.0 0.09 0.19 0.19 88 1005.9
20260503211205 54 91 0.0 0.0 0.07 0.18 0.18 88 1005.8
20260503210205 54 91 0.0 0.0 0.07 0.17 0.17 88 1005.9
20260503205704 54 91 1.0 3.0 0.05 0.15 0.15 88 1006.0
20260503205205 54 23 1.0 2.0 0.05 0.14 0.14 88 1006.0
20260503204205 54 20 0.0 1.0 0.05 0.13 0.13 87 1005.6
20260503202209 55 21 3.0 3.0 0.06 0.11 0.11 87 1005.8
20260503201705 55 21 2.0 3.0 0.06 0.11 0.11 87 1005.8
20260503194205 56 355 5.0 6.0 0.03 0.07 0.07 85 1006.3
20260503193706 56 293 2.0 3.0 0.02 0.06 0.06 85 1006.7
20260503193205 56 22 1.0 3.0 0.01 0.05 0.05 84 1006.7
20260503192705 56 23 2.0 5.0 0.00 0.04 0.04 84 1006.4
20260503192206 56 22 3.0 7.0 0.00 0.04 0.04 84 1006.4
20260503191705 56 350 5.0 6.0 0.00 0.04 0.04 83 1006.4
20260503191204 56 339 4.0 6.0 0.00 0.04 0.04 83 1006.0
20260503185705 57 353 2.0 2.0 0.00 0.04 0.04 82 1006.0
20260503185206 57 353 3.0 5.0 0.00 0.04 0.04 81 1005.9
20260503184205 57 0 5.0 6.0 0.00 0.04 0.04 81 1005.8
20260503183705 57 7 3.0 6.0 0.00 0.04 0.04 81 1005.7
20260503183205 57 9 5.0 6.0 0.00 0.04 0.04 80 1005.7
20260503180205 58 353 3.0 5.0 0.00 0.04 0.04 80 1005.9
20260503174205 59 9 1.0 3.0 0.00 0.04 0.04 79 1006.2
20260503173204 59 9 2.0 3.0 0.00 0.04 0.04 79 1006.2
20260503172705 59 9 2.0 3.0 0.00 0.04 0.04 78 1006.3
20260503171705 59 8 2.0 3.0 0.00 0.04 0.04 77 1006.3
20260503170205 59 16 3.0 7.0 0.00 0.04 0.04 75 1006.3
20260503150704 63 288 4.0 6.0 0.00 0.04 0.04 67 1007.6
20260503131204 62 215 3.0 5.0 0.00 0.04 0.04 79 1008.8